User: anonymous
Location: Irma
(52.9170°N, 111.2330°W)
Time: 17:11:55
(UTC-06:00)
Language:

Cosmos 2279 Rocket - Orbit

View from above orbital plane
View from above orbital plane
View from above satellite
View from above satellite

Ground track
Ground track

The orbit data is extracted from the following two-line orbital elements,

1 23093U 94024B   14238.15345258  .00000068  00000-0  53039-4 0  8927
2 23093 082.9501 157.5308 0010066 008.3184 351.8139 13.77624413490157
Epoch (UTC): 26 August 2014 03:40:58
Eccentricity: 0.0010066
inclination: 82.9501°
perigee height: 965 km
apogee height: 980 km
right ascension of ascending node: 157.5308°
argument of perigee: 8.3184°
revolutions per day: 13.77624413
mean anomaly at epoch: 351.8139°
orbit number at epoch: 49015

The dashed part of the orbit path shows where the satellite is in the earth's shadow,  

DLR